Time,TemperatureF,DewpointF,PressureIn,WindDirection,WindDirectionDegrees,WindSpeedMPH,WindSpeedGustMPH,Humidity,HourlyPrecipIn,Conditions,Clouds,dailyrainin,SolarRadiationWatts/m^2,SoftwareType,DateUTC
2013-12-29 00:02:00,39.0,39.0,-100.00,NNE,33,2.0,5.0,99,0.08,,,0.31,0.000000,,2013-12-29 06:02:00,
2013-12-29 00:43:00,39.0,39.0,-100.00,North,355,3.0,5.0,99,0.09,,,0.40,0.000000,,2013-12-29 06:43:00,
2013-12-29 00:52:00,39.0,39.0,-100.00,North,355,3.0,5.0,99,0.09,,,0.40,0.000000,,2013-12-29 06:52:00,
2013-12-29 01:02:00,39.0,39.0,-100.00,North,355,3.0,5.0,99,0.09,,,0.40,0.000000,,2013-12-29 07:02:00,
2013-12-29 01:42:00,39.0,39.0,-100.00,North,5,3.0,7.0,100,0.06,,,0.46,0.000000,,2013-12-29 07:42:00,
2013-12-29 01:52:00,39.0,39.0,-100.00,North,5,3.0,7.0,100,0.06,,,0.46,0.000000,,2013-12-29 07:52:00,
2013-12-29 02:02:00,39.0,39.0,-100.00,North,5,3.0,7.0,100,0.06,,,0.46,0.000000,,2013-12-29 08:02:00,
2013-12-29 02:42:00,39.0,39.0,-100.00,NNW,334,3.0,5.0,100,0.02,,,0.48,0.000000,,2013-12-29 08:42:00,
2013-12-29 02:52:00,39.0,39.0,-100.00,NNW,334,3.0,5.0,100,0.02,,,0.48,0.000000,,2013-12-29 08:52:00,
2013-12-29 03:02:00,39.0,39.0,-100.00,NNW,334,3.0,5.0,100,0.02,,,0.48,0.000000,,2013-12-29 09:02:00,
2013-12-29 03:43:00,39.0,39.0,-100.00,NNW,327,2.0,5.0,100,0.05,,,0.53,0.000000,,2013-12-29 09:43:00,
2013-12-29 03:53:00,39.0,39.0,-100.00,NNW,327,2.0,5.0,100,0.05,,,0.53,0.000000,,2013-12-29 09:53:00,
2013-12-29 04:03:00,39.0,39.0,-100.00,NNW,327,2.0,5.0,100,0.05,,,0.53,0.000000,,2013-12-29 10:03:00,
2013-12-29 04:43:00,39.0,39.0,-100.00,South,191,1.0,3.0,100,0.04,,,0.57,0.000000,,2013-12-29 10:43:00,
2013-12-29 04:53:00,39.0,39.0,-100.00,South,191,1.0,3.0,100,0.04,,,0.57,0.000000,,2013-12-29 10:53:00,
2013-12-29 05:02:00,39.0,39.0,-100.00,South,191,1.0,3.0,100,0.04,,,0.57,0.000000,,2013-12-29 11:02:00,
2013-12-29 05:43:00,39.0,39.0,-100.00,West,268,2.0,4.0,100,0.05,,,0.62,0.000000,,2013-12-29 11:43:00,
2013-12-29 05:53:00,39.0,39.0,-100.00,West,268,2.0,4.0,100,0.05,,,0.62,0.000000,,2013-12-29 11:53:00,
2013-12-29 06:02:00,39.0,39.0,-100.00,West,268,2.0,4.0,100,0.05,,,0.62,0.000000,,2013-12-29 12:02:00,
2013-12-29 06:42:00,39.0,39.0,-100.00,WNW,283,3.0,6.0,100,0.06,,,0.68,0.000000,,2013-12-29 12:42:00,
2013-12-29 06:52:00,39.0,39.0,-100.00,WNW,283,3.0,6.0,100,0.06,,,0.68,0.000000,,2013-12-29 12:52:00,
2013-12-29 07:02:00,39.0,39.0,-100.00,WNW,283,3.0,6.0,100,0.06,,,0.68,0.000000,,2013-12-29 13:02:00,
2013-12-29 07:42:00,38.0,38.0,-100.00,WNW,288,4.0,9.0,100,0.05,,,-99.99,0.000000,,2013-12-29 13:42:00,
2013-12-29 07:53:00,38.0,38.0,-100.00,WNW,288,4.0,9.0,100,0.05,,,-99.99,0.000000,,2013-12-29 13:53:00,
2013-12-29 08:01:00,38.0,38.0,-100.00,WNW,288,4.0,9.0,100,0.05,,,-99.99,0.000000,,2013-12-29 14:01:00,
2013-12-29 08:42:00,39.0,39.0,-100.00,West,270,2.0,8.0,100,0.02,,,0.75,10.000000,,2013-12-29 14:42:00,
2013-12-29 08:52:00,39.0,39.0,-100.00,West,270,2.0,8.0,100,0.02,,,0.75,10.000000,,2013-12-29 14:52:00,
2013-12-29 09:02:00,39.0,39.0,-100.00,West,270,2.0,8.0,100,0.02,,,0.75,10.000000,,2013-12-29 15:02:00,
2013-12-29 09:44:00,40.0,40.0,-100.00,WSW,248,4.0,6.0,100,0.01,,,0.76,47.000000,,2013-12-29 15:44:00,
2013-12-29 09:53:00,40.0,40.0,-100.00,WSW,248,4.0,6.0,100,0.01,,,0.76,47.000000,,2013-12-29 15:53:00,
2013-12-29 10:03:00,40.0,40.0,-100.00,WSW,248,4.0,6.0,100,0.01,,,0.76,47.000000,,2013-12-29 16:03:00,
2013-12-29 10:43:00,43.0,43.0,-100.00,West,276,4.0,8.0,99,0.00,,,0.76,141.000000,,2013-12-29 16:43:00,
2013-12-29 10:53:00,43.0,43.0,-100.00,West,276,4.0,8.0,99,0.00,,,0.76,141.000000,,2013-12-29 16:53:00,
2013-12-29 11:02:00,43.0,43.0,-100.00,West,276,4.0,8.0,99,0.00,,,0.76,141.000000,,2013-12-29 17:02:00,
2013-12-29 11:42:00,44.0,40.0,-100.00,WSW,246,6.0,9.0,87,0.00,,,0.76,209.000000,,2013-12-29 17:42:00,
2013-12-29 11:52:00,44.0,40.0,-100.00,WSW,246,6.0,9.0,87,0.00,,,0.76,209.000000,,2013-12-29 17:52:00,
2013-12-29 12:02:00,44.0,40.0,-100.00,WSW,246,6.0,9.0,87,0.00,,,0.76,209.000000,,2013-12-29 18:02:00,
2013-12-29 12:42:00,48.0,42.0,-100.00,WSW,243,4.0,10.0,81,0.00,,,0.76,282.000000,,2013-12-29 18:42:00,
2013-12-29 12:53:00,48.0,42.0,-100.00,WSW,243,4.0,10.0,81,0.00,,,0.76,282.000000,,2013-12-29 18:53:00,
2013-12-29 13:01:00,48.0,42.0,-100.00,WSW,243,4.0,10.0,81,0.00,,,0.76,282.000000,,2013-12-29 19:01:00,
2013-12-29 13:43:00,49.0,41.0,-100.00,SW,218,6.0,10.0,75,0.00,,,0.76,438.000000,,2013-12-29 19:43:00,
2013-12-29 13:52:00,49.0,41.0,-100.00,SW,218,6.0,10.0,75,0.00,,,0.76,438.000000,,2013-12-29 19:52:00,
2013-12-29 14:02:00,49.0,41.0,-100.00,SW,218,6.0,10.0,75,0.00,,,0.76,438.000000,,2013-12-29 20:02:00,
2013-12-29 14:42:00,49.0,40.0,-100.00,SW,221,6.0,12.0,71,0.00,,,0.76,334.000000,,2013-12-29 20:42:00,
2013-12-29 14:53:00,49.0,40.0,-100.00,SW,221,6.0,12.0,71,0.00,,,0.76,334.000000,,2013-12-29 20:53:00,
2013-12-29 15:02:00,49.0,40.0,-100.00,SW,221,6.0,12.0,71,0.00,,,0.76,334.000000,,2013-12-29 21:02:00,
2013-12-29 15:43:00,50.0,41.0,-100.00,SSW,195,6.0,11.0,70,0.00,,,0.76,260.000000,,2013-12-29 21:43:00,
2013-12-29 15:53:00,50.0,41.0,-100.00,SSW,195,6.0,11.0,70,0.00,,,0.76,260.000000,,2013-12-29 21:53:00,
2013-12-29 16:03:00,50.0,41.0,-100.00,SSW,195,6.0,11.0,70,0.00,,,0.76,260.000000,,2013-12-29 22:03:00,
2013-12-29 16:42:00,48.0,39.0,-100.00,SW,221,6.0,11.0,71,0.00,,,0.76,113.000000,,2013-12-29 22:42:00,
2013-12-29 16:52:00,48.0,39.0,-100.00,SW,221,6.0,11.0,71,0.00,,,0.76,113.000000,,2013-12-29 22:52:00,
2013-12-29 17:02:00,48.0,39.0,-100.00,SW,221,6.0,11.0,71,0.00,,,0.76,113.000000,,2013-12-29 23:02:00,
2013-12-29 17:42:00,46.0,39.0,-100.00,WSW,240,3.0,8.0,77,0.00,,,0.76,5.000000,,2013-12-29 23:42:00,
2013-12-29 17:53:00,46.0,39.0,-100.00,WSW,240,3.0,8.0,77,0.00,,,0.76,5.000000,,2013-12-29 23:53:00,
2013-12-29 18:02:00,46.0,39.0,-100.00,WSW,240,3.0,8.0,77,0.00,,,0.76,5.000000,,2013-12-30 00:02:00,
2013-12-29 18:42:00,46.0,40.0,-100.00,WNW,285,3.0,6.0,79,0.00,,,0.74,0.000000,,2013-12-30 00:42:00,
2013-12-29 18:53:00,46.0,40.0,-100.00,WNW,285,3.0,6.0,79,0.00,,,0.74,0.000000,,2013-12-30 00:53:00,
2013-12-29 19:02:00,46.0,40.0,-100.00,WNW,285,3.0,6.0,79,0.00,,,0.74,0.000000,,2013-12-30 01:02:00,
2013-12-29 19:43:00,42.0,36.0,-100.00,NW,317,8.0,16.0,78,0.00,,,0.72,0.000000,,2013-12-30 01:43:00,
2013-12-29 19:52:00,42.0,36.0,-100.00,NW,317,8.0,16.0,78,0.00,,,0.72,0.000000,,2013-12-30 01:52:00,
2013-12-29 20:02:00,42.0,36.0,-100.00,NW,317,8.0,16.0,78,0.00,,,0.72,0.000000,,2013-12-30 02:02:00,
2013-12-29 20:42:00,37.0,34.0,-100.00,NW,309,7.0,17.0,87,0.00,,,0.66,0.000000,,2013-12-30 02:42:00,
2013-12-29 20:52:00,37.0,34.0,-100.00,NW,309,7.0,17.0,87,0.00,,,0.66,0.000000,,2013-12-30 02:52:00,
2013-12-29 21:02:00,37.0,34.0,-100.00,NW,309,7.0,17.0,87,0.00,,,0.66,0.000000,,2013-12-30 03:02:00,
2013-12-29 21:43:00,34.0,32.0,-100.00,NNW,328,8.0,17.0,91,0.00,,,0.61,0.000000,,2013-12-30 03:43:00,
2013-12-29 21:54:00,34.0,32.0,-100.00,NNW,328,8.0,17.0,91,0.00,,,0.61,0.000000,,2013-12-30 03:54:00,
2013-12-29 22:03:00,34.0,32.0,-100.00,NNW,328,8.0,17.0,91,0.00,,,0.61,0.000000,,2013-12-30 04:03:00,
2013-12-29 22:43:00,32.0,31.0,-100.00,NNW,328,8.0,19.0,95,0.00,,,0.53,0.000000,,2013-12-30 04:43:00,
2013-12-29 22:53:00,32.0,31.0,-100.00,NNW,328,8.0,19.0,95,0.00,,,0.53,0.000000,,2013-12-30 04:53:00,
2013-12-29 23:02:00,32.0,31.0,-100.00,NNW,328,8.0,19.0,95,0.00,,,0.53,0.000000,,2013-12-30 05:02:00,
2013-12-29 23:43:00,31.0,29.0,-100.00,NNW,335,6.0,15.0,94,0.00,,,0.45,0.000000,,2013-12-30 05:43:00,
2013-12-29 23:53:00,31.0,29.0,-100.00,NNW,335,6.0,15.0,94,0.00,,,0.45,0.000000,,2013-12-30 05:53:00,